Погода в Ербенте

Погода в Ербенте : погода сейчас, прогноз погоды и архив. Всё, что Вы хотите узнать о погоде в Ербенте!

Хотите узнать прогноз погоды в Ербенте? Тогда Вам сюда: Погода в Ербенте

Поиск расширенной информации на нашем сайте:

Другие новости

Новости СМИ2

Главная страница сайта

Новости сайта

03.07.2017

Напоминаем, что на нашем специализированном сайте Метеоцентр.Азия вы можете получить высокодетализированные автоматические прогнозы погоды по пунктам России, СНГ и мира в авиационном формате (включающие направление и скорость ветра, видимость, явления погоды, количество и форму облачности, нижнюю и верхнюю границу облачности).


Погода в Ербенте - сегодня

Время (UTC), дата Ветер
(°,м/с) 
Видим.   Явления Облачность Т
(°С)
Тd
(°С)
f(%) Тe
(°С)
Pmin
(гПа)
dP
(гПа)
Po
(мм)
O2
(г/м3)
Тmin Tmax R s Состояние
почвы
18 14.08.18 050 (СВ) 10 км    ясно 
+30.9 +10.5 28 +33  1008.4  740  266    +38.9       
21 14.08.18 тихо ()   20000 м    ясно 
+29.5 +4.8 21 +30  1008.5  -0.5  749  272           
00 15.08.18 тихо ()   20000 м    ясно 
+28 +5.3 24 +28  1008.9  0.4  749  273           
03 15.08.18 тихо ()   20000 м    3/0 средняя 
[Ac cast]
+26.8 +5.8 26 +27  1010.6  1.7  750  274           
06 15.08.18 340 (С) 20000 м    ясно 
+33.4 +15.3 34 +43  1011.3  0.9  751  267  +24.3         
09 15.08.18 050 (СВ) 20000 м    ясно 
+38.2 +13.8 24 +45  1009.9  -1.2  750  263           
12 15.08.18 тихо ()   20000 м    ясно 
+39.2 +11.9 20 +43  1008.4  -1.5  749  262           
15 15.08.18 050 (СВ) 20000 м    ясно 
+38.4 +7.7 16 +38  1008.2  -0.2  749  263    +39.7       
18 15.08.18 тихо ()   20000 м    ясно 
+32.2 +6.2 20 +32  1009.3  0.9  750  269    +39.7       
21 15.08.18 тихо ()   20000 м    ясно 
+31.2 +7.1 22 +31  1008.2  -1.2  749  270           
00 16.08.18 тихо ()   20000 м    ясно 
+27 +7.7 29 +27  1010.3  750  274           
03 16.08.18 320 (СЗ) 20000 м    ясно 
+27.4 +16.3 51 +38  1011  1.7  751  272           
06 16.08.18 тихо ()   20000 м    ясно 
+34.2 +15 32 +43  1012.7  0.9  752  266  +25.3         
09 16.08.18 360 (С) 20000 м    ясно 
+38 +11.3 20 +41  1011.2  -1.3  751  264           
12 16.08.18 тихо ()   20000 м    ясно 
+40 +11.1 18 +43  1009.6  -1.6  750  262           
15 16.08.18 тихо ()   20000 м    ясно 
+38.8 +10.5 18 +41  1009.1  -0.5  750  263    +40.5       
18 16.08.18 070 (В) 20000 м    ясно 
+35.2 +8.6 20 +35  1009.9  0.6  750  266    +40.5       
21 16.08.18 090 (В) 20000 м    ясно 
+31.3 +7 22 +31  1009.5  -0.5  750  270           
00 17.08.18 070 (В) 20000 м    ясно 
+28 +5.3 24 +28  1009.4  -0.2  749  273           
03 17.08.18 070 (В) 20000 м    ясно 
+28.6 +5.8 24 +29  1010.1  0.7  750  273           
06 17.08.18 090 (В) 20000 м    ясно 
+35.8 +7.4 18 +36  1010.1  0.2  750  266  +27.2         
09 17.08.18 050 (СВ) 20000 м    ясно 
+39.4 +7.8 15 +39  1009  -0.9  749  263           
12 17.08.18 050 (СВ) 20000 м    ясно 
+40 +6.4 13 +40  1007.1  -1.9  748  262           
15 17.08.18 050 (СВ) 20000 м    ясно 
+38.6 +5 13 +39  1006.4  -0.7  748  263    +40.5       
18 17.08.18 070 (В) 20000 м    ясно 
+34 +5 16 +34  1006  -0.6  747  267    +40.5       
Время (UTC), дата Ветер
(°,м/с) 
Видим.   Явления Облачность Т
(°С)
Тd
(°С)
f(%) Тe
(°С)
Pmin
(гПа)
dP
(гПа)
Po
(мм)
O2
(г/м3)
Тmin Tmax R s Состояние
почвы

Для получения пояснительной информации подведите курсор к названию столбца.

ПОГОДА в Ербенте - архив

Всё, что Вы хотите узнать о погоде в Ербенте - удобно и подробно!

Выберите нужную дату (начиная с 1 января 2015* года) и нажмите кнопку "Найти".
Будут отображены архивные сводки погоды по пункту Ербент, начиная с указанной даты.


Отображать данные в формате CSV (для использования в таблицах Excel)


Внимание! Наш архив погоды предназначен исключительно для личного некоммерческого использования в познавательных целях. Если Вам необходимы официальные справки о состоянии погоды (для производственных, юридических, коммерческих и т.п. целей), обращайтесь в органы Росгидромета.

*Примечание: данная дата относится к архиву по метеостанциям СССР (Россия, СНГ, Балтия).
Архив по метеостанциям Зарубежной Европы и Азии (кроме Китая) хранится 10 дней, по другим регионам земного шара (Китай, Африка, Америка, Австралия, Океания) - 1 день.

Ербент - район местоположения метеостанции


Название, широта, долгота, высота метеостанции:
Ербент 39.3°ш. 58.6°д. 87 м над ур. моря [Туркменистан]

Дополнительная информация

В oтличие oт бoльшинства пoгoдных сайтoв мы публикуем пoдрoбную метеoинфoрмацию в детальнoм прoфессиoнальнoм фoрмате.

Характеристики температуры и влажнoсти вoздуха измеряются на высoте 2 м в тени вдали oт зданий и деревьев.
Скoрoсть ветра измеряется на высoте 10 м (на урoвне рoста челoвека скoрoсть ветра ниже в 1.5-2 раза). Если метеoстанция нахoдится в гoрoде или в лесу, тo скoрoсть ветра занижена на 2-4 м/с пo сравнению с oткрытым местoм. Скoрoсть ветра над акватoриями крупных рек и oзёр, а также на вершинах хoлмoв на 2-5 м/с выше, чем в oбычных услoвиях.
Атмoсфернoе давление в разных тoчках местнoсти мoжет значительнo oтличаться oт давления на метеoстанции, в зависимoсти oт услoвий рельефа (при пoдъёме на 10 м давление пoнижается примернo на 1 мм рт.ст.).